Date_UTC,IAGA,MLT,MLAT,IGRF_DECL,SZA,N,E,Z
2015-08-15 08:00:00,UMQ,5.89,76.38,-34.41,84.07,-21.3,10.5,9.7
2015-08-15 08:01:00,UMQ,5.90,76.38,-34.41,84.00,-14.0,11.2,-0.5
2015-08-15 08:02:00,UMQ,5.92,76.38,-34.41,83.93,-10.6,12.2,-6.5
2015-08-15 08:03:00,UMQ,5.94,76.38,-34.41,83.85,-7.2,13.4,-10.3
2015-08-15 08:04:00,UMQ,5.95,76.38,-34.41,83.78,-4.6,15.1,-11.8
2015-08-15 08:05:00,UMQ,5.97,76.38,-34.41,83.70,-4.0,16.7,-8.7
2015-08-15 08:06:00,UMQ,5.99,76.38,-34.41,83.63,-7.2,17.8,-2.5
2015-08-15 08:07:00,UMQ,6.00,76.38,-34.41,83.55,-6.6,19.1,1.0
2015-08-15 08:08:00,UMQ,6.02,76.38,-34.41,83.48,-6.3,17.7,1.4
2015-08-15 08:09:00,UMQ,6.04,76.38,-34.41,83.40,-6.2,17.1,2.6
2015-08-15 08:10:00,UMQ,6.05,76.38,-34.41,83.33,-8.3,17.5,4.5
2015-08-15 08:11:00,UMQ,6.07,76.38,-34.41,83.25,-12.8,17.5,9.3
2015-08-15 08:12:00,UMQ,6.09,76.38,-34.41,83.18,-15.6,18.3,14.1
2015-08-15 08:13:00,UMQ,6.10,76.38,-34.41,83.10,-16.0,18.3,17.0
2015-08-15 08:14:00,UMQ,6.12,76.38,-34.41,83.03,-14.1,17.5,17.9
2015-08-15 08:15:00,UMQ,6.14,76.38,-34.41,82.95,-14.2,16.7,20.4
2015-08-15 08:16:00,UMQ,6.15,76.38,-34.41,82.87,-19.6,14.8,26.9
2015-08-15 08:17:00,UMQ,6.17,76.38,-34.41,82.80,-23.8,13.5,29.4
2015-08-15 08:18:00,UMQ,6.19,76.38,-34.41,82.72,-22.9,12.6,29.7
2015-08-15 08:19:00,UMQ,6.21,76.38,-34.41,82.64,-22.0,9.4,30.0
2015-08-15 08:20:00,UMQ,6.22,76.38,-34.41,82.57,-23.3,7.4,25.7
2015-08-15 08:21:00,UMQ,6.24,76.38,-34.41,82.49,-23.6,8.6,16.9
2015-08-15 08:22:00,UMQ,6.26,76.38,-34.41,82.41,-25.2,7.2,9.1
2015-08-15 08:23:00,UMQ,6.27,76.38,-34.41,82.34,-27.2,4.7,5.2
2015-08-15 08:24:00,UMQ,6.29,76.38,-34.41,82.26,-22.3,7.9,2.3
2015-08-15 08:25:00,UMQ,6.31,76.38,-34.41,82.18,-18.6,9.2,0.0
2015-08-15 08:26:00,UMQ,6.32,76.38,-34.41,82.11,-18.8,8.1,0.9
2015-08-15 08:27:00,UMQ,6.34,76.38,-34.41,82.03,-20.5,8.8,-0.8
2015-08-15 08:28:00,UMQ,6.36,76.38,-34.41,81.95,-20.6,9.6,-3.3
2015-08-15 08:29:00,UMQ,6.37,76.38,-34.41,81.87,-48.4,-7.6,-2.1
2015-08-15 08:30:00,UMQ,6.39,76.38,-34.41,81.80,-60.5,-0.4,19.3
2015-08-15 08:31:00,UMQ,6.41,76.38,-34.41,81.72,47.3,89.0,-87.2
2015-08-15 08:32:00,UMQ,6.42,76.38,-34.41,81.64,97.3,124.0,-176.6
2015-08-15 08:33:00,UMQ,6.44,76.38,-34.41,81.56,129.6,140.6,-190.1
2015-08-15 08:34:00,UMQ,6.46,76.38,-34.41,81.48,143.5,141.1,-175.1
2015-08-15 08:35:00,UMQ,6.47,76.38,-34.41,81.40,126.8,126.8,-122.5
2015-08-15 08:36:00,UMQ,6.49,76.38,-34.41,81.33,101.3,104.8,-56.3
2015-08-15 08:37:00,UMQ,6.51,76.38,-34.41,81.25,95.3,84.2,-15.6
2015-08-15 08:38:00,UMQ,6.52,76.38,-34.41,81.17,89.4,68.5,0.0
2015-08-15 08:39:00,UMQ,6.54,76.38,-34.41,81.09,74.2,63.1,11.6
2015-08-15 08:40:00,UMQ,6.56,76.38,-34.41,81.01,78.7,60.0,2.0
2015-08-15 08:41:00,UMQ,6.57,76.38,-34.41,80.93,76.9,56.2,21.4
2015-08-15 08:42:00,UMQ,6.59,76.38,-34.41,80.85,77.2,55.3,45.6
2015-08-15 08:43:00,UMQ,6.61,76.38,-34.41,80.77,79.1,52.5,59.5
2015-08-15 08:44:00,UMQ,6.62,76.38,-34.41,80.70,86.2,51.2,68.9
2015-08-15 08:45:00,UMQ,6.64,76.38,-34.41,80.62,78.9,53.1,81.5
2015-08-15 08:46:00,UMQ,6.66,76.38,-34.41,80.54,77.2,76.1,118.3
2015-08-15 08:47:00,UMQ,6.67,76.38,-34.41,80.46,63.5,87.1,134.7
2015-08-15 08:48:00,UMQ,6.69,76.38,-34.41,80.38,56.8,94.4,156.0
2015-08-15 08:49:00,UMQ,6.71,76.38,-34.41,80.30,46.1,96.6,177.3
2015-08-15 08:50:00,UMQ,6.72,76.38,-34.41,80.22,48.6,103.4,182.5
2015-08-15 08:51:00,UMQ,6.74,76.38,-34.41,80.14,43.2,105.8,187.6
2015-08-15 08:52:00,UMQ,6.76,76.38,-34.41,80.06,45.6,105.9,188.9
2015-08-15 08:53:00,UMQ,6.77,76.38,-34.41,79.98,56.0,107.7,182.4
2015-08-15 08:54:00,UMQ,6.79,76.38,-34.41,79.90,65.3,121.6,171.4
2015-08-15 08:55:00,UMQ,6.81,76.38,-34.41,79.82,75.3,132.8,161.3
2015-08-15 08:56:00,UMQ,6.82,76.38,-34.41,79.74,77.1,144.1,150.0
2015-08-15 08:57:00,UMQ,6.84,76.38,-34.41,79.66,76.0,146.1,142.1
2015-08-15 08:58:00,UMQ,6.86,76.38,-34.41,79.58,81.1,141.9,124.5
2015-08-15 08:59:00,UMQ,6.87,76.38,-34.41,79.50,89.8,135.8,115.6
2015-08-15 09:00:00,UMQ,6.89,76.38,-34.41,79.42,100.9,133.6,100.0
2015-08-15 09:01:00,UMQ,6.91,76.38,-34.41,79.34,89.5,128.7,96.8
2015-08-15 09:02:00,UMQ,6.93,76.38,-34.41,79.26,79.6,123.2,108.5
2015-08-15 09:03:00,UMQ,6.94,76.38,-34.41,79.17,82.0,120.2,104.9
2015-08-15 09:04:00,UMQ,6.96,76.38,-34.41,79.09,88.9,116.8,96.8
2015-08-15 09:05:00,UMQ,6.98,76.38,-34.41,79.01,80.2,117.0,103.9
2015-08-15 09:06:00,UMQ,6.99,76.38,-34.41,78.93,66.3,132.1,103.1
2015-08-15 09:07:00,UMQ,7.01,76.38,-34.41,78.85,60.1,137.4,99.1
2015-08-15 09:08:00,UMQ,7.03,76.38,-34.41,78.77,31.0,124.1,115.6
2015-08-15 09:09:00,UMQ,7.04,76.38,-34.41,78.69,40.0,117.4,116.2
2015-08-15 09:10:00,UMQ,7.06,76.38,-34.41,78.61,37.0,100.1,116.0
2015-08-15 09:11:00,UMQ,7.08,76.38,-34.41,78.53,23.4,86.3,133.9
2015-08-15 09:12:00,UMQ,7.09,76.38,-34.41,78.45,20.9,96.9,130.9
2015-08-15 09:13:00,UMQ,7.11,76.38,-34.41,78.36,33.1,96.6,111.1
2015-08-15 09:14:00,UMQ,7.13,76.38,-34.41,78.28,49.4,96.5,88.4
2015-08-15 09:15:00,UMQ,7.14,76.38,-34.41,78.20,60.7,100.6,74.0
2015-08-15 09:16:00,UMQ,7.16,76.38,-34.41,78.12,84.6,106.7,53.6
2015-08-15 09:17:00,UMQ,7.18,76.38,-34.41,78.04,98.8,108.4,52.1
2015-08-15 09:18:00,UMQ,7.19,76.38,-34.41,77.96,130.7,119.0,35.4
2015-08-15 09:19:00,UMQ,7.21,76.38,-34.41,77.87,155.6,146.2,18.0
2015-08-15 09:20:00,UMQ,7.23,76.38,-34.41,77.79,140.6,158.8,23.1
2015-08-15 09:21:00,UMQ,7.24,76.38,-34.41,77.71,126.7,164.8,41.8
2015-08-15 09:22:00,UMQ,7.26,76.38,-34.41,77.63,126.4,186.3,47.1
2015-08-15 09:23:00,UMQ,7.28,76.38,-34.41,77.55,119.4,187.4,43.6
2015-08-15 09:24:00,UMQ,7.29,76.38,-34.41,77.47,105.4,198.2,50.2
2015-08-15 09:25:00,UMQ,7.31,76.38,-34.41,77.38,79.9,189.9,52.3
2015-08-15 09:26:00,UMQ,7.33,76.38,-34.41,77.30,62.5,178.1,52.2
2015-08-15 09:27:00,UMQ,7.34,76.38,-34.41,77.22,55.5,175.7,46.7
2015-08-15 09:28:00,UMQ,7.36,76.38,-34.41,77.14,39.3,162.7,50.4
2015-08-15 09:29:00,UMQ,7.38,76.38,-34.41,77.06,28.1,144.4,57.4
2015-08-15 09:30:00,UMQ,7.39,76.38,-34.41,76.97,3.8,118.2,75.9
2015-08-15 09:31:00,UMQ,7.41,76.38,-34.41,76.89,-12.3,91.7,95.3
2015-08-15 09:32:00,UMQ,7.43,76.38,-34.41,76.81,-5.0,101.1,72.6
2015-08-15 09:33:00,UMQ,7.44,76.38,-34.41,76.73,-15.7,91.7,68.9
2015-08-15 09:34:00,UMQ,7.46,76.38,-34.41,76.64,-24.1,82.5,77.9
2015-08-15 09:35:00,UMQ,7.48,76.38,-34.41,76.56,-9.7,99.5,59.7
2015-08-15 09:36:00,UMQ,7.50,76.38,-34.41,76.48,-20.5,98.8,56.1
2015-08-15 09:37:00,UMQ,7.51,76.38,-34.41,76.40,-11.3,90.5,55.0
2015-08-15 09:38:00,UMQ,7.53,76.38,-34.41,76.32,-4.7,89.9,51.6
2015-08-15 09:39:00,UMQ,7.55,76.38,-34.41,76.23,-1.0,83.0,62.8
2015-08-15 09:40:00,UMQ,7.56,76.38,-34.41,76.15,6.5,86.6,69.6
2015-08-15 09:41:00,UMQ,7.58,76.38,-34.41,76.07,2.3,82.8,87.6
2015-08-15 09:42:00,UMQ,7.60,76.38,-34.41,75.99,-17.3,74.0,106.5
2015-08-15 09:43:00,UMQ,7.61,76.38,-34.41,75.90,-31.4,68.3,109.7
2015-08-15 09:44:00,UMQ,7.63,76.38,-34.41,75.82,-50.3,60.3,106.4
2015-08-15 09:45:00,UMQ,7.65,76.38,-34.41,75.74,-52.2,57.1,97.9
2015-08-15 09:46:00,UMQ,7.66,76.38,-34.41,75.66,-51.3,67.2,77.0
2015-08-15 09:47:00,UMQ,7.68,76.38,-34.41,75.57,-52.4,77.4,77.2
2015-08-15 09:48:00,UMQ,7.70,76.38,-34.41,75.49,-36.1,89.9,71.2
2015-08-15 09:49:00,UMQ,7.71,76.38,-34.41,75.41,-30.9,98.1,69.5
2015-08-15 09:50:00,UMQ,7.73,76.38,-34.41,75.33,-20.9,115.2,65.9
2015-08-15 09:51:00,UMQ,7.75,76.38,-34.41,75.24,-8.7,138.3,48.1
2015-08-15 09:52:00,UMQ,7.76,76.38,-34.41,75.16,-4.0,155.3,33.3
2015-08-15 09:53:00,UMQ,7.78,76.38,-34.41,75.08,-1.1,159.5,28.8
2015-08-15 09:54:00,UMQ,7.80,76.38,-34.41,75.00,6.5,156.4,32.0
2015-08-15 09:55:00,UMQ,7.81,76.38,-34.41,74.91,2.4,154.6,45.9
2015-08-15 09:56:00,UMQ,7.83,76.38,-34.41,74.83,-10.6,147.3,61.2
2015-08-15 09:57:00,UMQ,7.85,76.38,-34.41,74.75,-32.0,146.2,74.3
2015-08-15 09:58:00,UMQ,7.86,76.38,-34.41,74.67,-43.2,140.4,82.8
2015-08-15 09:59:00,UMQ,7.88,76.38,-34.41,74.58,-54.8,134.4,85.4
2015-08-15 10:00:00,UMQ,7.90,76.38,-34.41,74.50,-52.6,142.0,80.0
2015-08-15 10:01:00,UMQ,7.91,76.38,-34.41,74.42,-47.9,155.3,76.5
2015-08-15 10:02:00,UMQ,7.93,76.38,-34.41,74.34,-28.1,167.4,62.2
2015-08-15 10:03:00,UMQ,7.95,76.38,-34.41,74.25,-15.8,170.6,42.0
2015-08-15 10:04:00,UMQ,7.96,76.38,-34.41,74.17,-8.8,169.9,31.3
2015-08-15 10:05:00,UMQ,7.98,76.38,-34.41,74.09,-12.5,160.1,33.4
2015-08-15 10:06:00,UMQ,8.00,76.38,-34.41,74.01,-2.6,160.5,30.1
2015-08-15 10:07:00,UMQ,8.01,76.38,-34.41,73.92,-1.8,145.8,30.8
2015-08-15 10:08:00,UMQ,8.03,76.38,-34.41,73.84,6.9,156.3,16.1
2015-08-15 10:09:00,UMQ,8.05,76.38,-34.41,73.76,-5.6,163.5,14.1
2015-08-15 10:10:00,UMQ,8.06,76.38,-34.41,73.68,-6.9,161.2,21.1
2015-08-15 10:11:00,UMQ,8.08,76.38,-34.41,73.59,-4.6,164.6,22.1
2015-08-15 10:12:00,UMQ,8.10,76.38,-34.41,73.51,9.3,183.5,9.3
2015-08-15 10:13:00,UMQ,8.11,76.38,-34.41,73.43,20.1,198.4,-2.5
2015-08-15 10:14:00,UMQ,8.13,76.38,-34.41,73.35,19.9,208.5,-10.0
2015-08-15 10:15:00,UMQ,8.15,76.38,-34.41,73.27,31.7,209.1,-18.5
2015-08-15 10:16:00,UMQ,8.16,76.38,-34.41,73.18,43.7,200.7,-22.1
2015-08-15 10:17:00,UMQ,8.18,76.38,-34.41,73.10,35.1,188.3,-12.1
2015-08-15 10:18:00,UMQ,8.20,76.38,-34.41,73.02,34.5,176.2,1.8
2015-08-15 10:19:00,UMQ,8.21,76.38,-34.41,72.94,25.3,166.1,11.9
2015-08-15 10:20:00,UMQ,8.23,76.38,-34.41,72.85,17.2,161.8,22.0
2015-08-15 10:21:00,UMQ,8.25,76.38,-34.41,72.77,5.0,164.4,25.2
2015-08-15 10:22:00,UMQ,8.26,76.38,-34.41,72.69,-14.9,172.6,30.0
2015-08-15 10:23:00,UMQ,8.28,76.38,-34.41,72.61,-22.0,171.4,27.3
2015-08-15 10:24:00,UMQ,8.30,76.38,-34.41,72.53,-19.3,170.3,16.6
2015-08-15 10:25:00,UMQ,8.31,76.38,-34.41,72.45,-6.0,174.0,-0.3
2015-08-15 10:26:00,UMQ,8.33,76.38,-34.41,72.36,7.6,173.8,-21.4
2015-08-15 10:27:00,UMQ,8.35,76.38,-34.41,72.28,25.2,182.0,-37.9
2015-08-15 10:28:00,UMQ,8.36,76.38,-34.41,72.20,31.5,191.0,-45.1
2015-08-15 10:29:00,UMQ,8.38,76.38,-34.41,72.12,16.0,198.9,-30.7
2015-08-15 10:30:00,UMQ,8.40,76.38,-34.41,72.04,-0.6,197.2,-10.5
2015-08-15 10:31:00,UMQ,8.41,76.38,-34.41,71.96,-13.8,192.7,-0.3
2015-08-15 10:32:00,UMQ,8.43,76.38,-34.41,71.87,-15.1,183.6,-1.4
2015-08-15 10:33:00,UMQ,8.45,76.38,-34.41,71.79,-14.5,178.2,-1.0
2015-08-15 10:34:00,UMQ,8.46,76.38,-34.41,71.71,-12.0,180.5,-5.6
2015-08-15 10:35:00,UMQ,8.48,76.38,-34.41,71.63,-8.5,174.7,-12.9
2015-08-15 10:36:00,UMQ,8.50,76.38,-34.41,71.55,-5.7,176.6,-17.4
2015-08-15 10:37:00,UMQ,8.51,76.38,-34.41,71.47,-0.2,172.7,-24.3
2015-08-15 10:38:00,UMQ,8.53,76.38,-34.41,71.39,12.5,172.3,-31.4
2015-08-15 10:39:00,UMQ,8.55,76.38,-34.41,71.31,26.3,191.1,-47.8
2015-08-15 10:40:00,UMQ,8.56,76.38,-34.41,71.22,44.8,201.6,-66.7
2015-08-15 10:41:00,UMQ,8.58,76.38,-34.41,71.14,55.1,209.0,-77.8
2015-08-15 10:42:00,UMQ,8.59,76.38,-34.41,71.06,61.0,218.9,-87.8
2015-08-15 10:43:00,UMQ,8.61,76.38,-34.41,70.98,70.6,218.0,-97.1
2015-08-15 10:44:00,UMQ,8.63,76.38,-34.41,70.90,70.6,216.5,-91.9
2015-08-15 10:45:00,UMQ,8.64,76.38,-34.41,70.82,71.2,228.8,-85.6
2015-08-15 10:46:00,UMQ,8.66,76.38,-34.41,70.74,72.6,236.3,-92.6
2015-08-15 10:47:00,UMQ,8.68,76.38,-34.41,70.66,81.9,241.0,-91.9
2015-08-15 10:48:00,UMQ,8.69,76.38,-34.41,70.58,87.4,235.3,-82.7
2015-08-15 10:49:00,UMQ,8.71,76.38,-34.41,70.50,80.8,220.3,-63.5
2015-08-15 10:50:00,UMQ,8.73,76.38,-34.41,70.42,67.2,208.9,-43.4
2015-08-15 10:51:00,UMQ,8.74,76.38,-34.41,70.34,57.7,208.6,-33.8
2015-08-15 10:52:00,UMQ,8.76,76.38,-34.41,70.26,42.8,204.9,-32.0
2015-08-15 10:53:00,UMQ,8.77,76.38,-34.41,70.18,33.1,208.9,-38.0
2015-08-15 10:54:00,UMQ,8.79,76.38,-34.41,70.10,33.3,210.1,-53.2
2015-08-15 10:55:00,UMQ,8.81,76.38,-34.41,70.02,33.6,212.3,-63.7
2015-08-15 10:56:00,UMQ,8.82,76.38,-34.41,69.94,42.5,222.8,-75.8
2015-08-15 10:57:00,UMQ,8.84,76.38,-34.41,69.86,49.4,221.1,-87.4
2015-08-15 10:58:00,UMQ,8.86,76.38,-34.41,69.78,44.2,208.1,-86.2
2015-08-15 10:59:00,UMQ,8.87,76.38,-34.41,69.70,34.1,202.8,-83.2
2015-08-15 11:00:00,UMQ,8.89,76.38,-34.41,69.62,28.1,200.7,-85.6
2015-08-15 11:01:00,UMQ,8.91,76.38,-34.41,69.54,17.3,197.2,-88.7
2015-08-15 11:02:00,UMQ,8.92,76.38,-34.41,69.46,10.2,197.0,-86.9
2015-08-15 11:03:00,UMQ,8.94,76.38,-34.41,69.38,13.7,202.3,-93.2
2015-08-15 11:04:00,UMQ,8.95,76.38,-34.41,69.30,16.5,212.3,-102.1
2015-08-15 11:05:00,UMQ,8.97,76.38,-34.41,69.23,18.1,222.3,-108.8
2015-08-15 11:06:00,UMQ,8.99,76.38,-34.41,69.15,30.1,230.6,-116.4
2015-08-15 11:07:00,UMQ,9.00,76.38,-34.41,69.07,40.3,220.2,-120.9
2015-08-15 11:08:00,UMQ,9.02,76.38,-34.41,68.99,51.6,211.7,-123.5
2015-08-15 11:09:00,UMQ,9.03,76.38,-34.41,68.91,58.2,203.9,-127.4
2015-08-15 11:10:00,UMQ,9.05,76.38,-34.41,68.83,67.2,197.8,-129.9
2015-08-15 11:11:00,UMQ,9.07,76.38,-34.41,68.75,73.7,195.9,-132.0
2015-08-15 11:12:00,UMQ,9.08,76.38,-34.41,68.68,76.8,196.0,-129.0
2015-08-15 11:13:00,UMQ,9.10,76.38,-34.41,68.60,73.6,187.1,-120.2
2015-08-15 11:14:00,UMQ,9.12,76.38,-34.41,68.52,66.7,186.8,-109.5
2015-08-15 11:15:00,UMQ,9.13,76.38,-34.41,68.44,85.6,200.7,-96.7
2015-08-15 11:16:00,UMQ,9.15,76.38,-34.41,68.36,102.5,208.6,-92.7
2015-08-15 11:17:00,UMQ,9.16,76.38,-34.41,68.29,102.3,197.9,-70.5
2015-08-15 11:18:00,UMQ,9.18,76.38,-34.41,68.21,93.0,186.0,-41.0
2015-08-15 11:19:00,UMQ,9.20,76.38,-34.41,68.13,77.4,181.5,-14.6
2015-08-15 11:20:00,UMQ,9.21,76.38,-34.41,68.06,60.5,179.9,6.7
2015-08-15 11:21:00,UMQ,9.23,76.38,-34.41,67.98,42.7,176.9,27.7
2015-08-15 11:22:00,UMQ,9.24,76.38,-34.41,67.90,28.6,164.1,42.9
2015-08-15 11:23:00,UMQ,9.26,76.38,-34.41,67.83,16.6,158.1,57.6
2015-08-15 11:24:00,UMQ,9.28,76.38,-34.41,67.75,2.2,155.0,67.4
2015-08-15 11:25:00,UMQ,9.29,76.38,-34.41,67.67,-8.7,154.4,77.1
2015-08-15 11:26:00,UMQ,9.31,76.38,-34.41,67.60,-21.9,151.6,88.1
2015-08-15 11:27:00,UMQ,9.32,76.38,-34.41,67.52,-29.8,146.9,98.7
2015-08-15 11:28:00,UMQ,9.34,76.38,-34.41,67.44,-43.8,139.5,115.4
2015-08-15 11:29:00,UMQ,9.36,76.38,-34.41,67.37,-60.2,126.6,136.9
2015-08-15 11:30:00,UMQ,9.37,76.38,-34.41,67.29,-77.0,114.8,151.9
2015-08-15 11:31:00,UMQ,9.39,76.38,-34.41,67.22,-89.4,109.1,156.0
2015-08-15 11:32:00,UMQ,9.40,76.38,-34.41,67.14,-106.9,96.1,159.7
2015-08-15 11:33:00,UMQ,9.42,76.38,-34.41,67.07,-114.8,92.3,163.8
2015-08-15 11:34:00,UMQ,9.43,76.38,-34.41,66.99,-130.9,80.1,166.0
2015-08-15 11:35:00,UMQ,9.45,76.38,-34.41,66.92,-146.2,79.3,176.2
2015-08-15 11:36:00,UMQ,9.47,76.38,-34.41,66.84,-157.1,78.5,179.2
2015-08-15 11:37:00,UMQ,9.48,76.38,-34.41,66.77,-175.9,74.1,184.8
2015-08-15 11:38:00,UMQ,9.50,76.38,-34.41,66.69,-181.5,76.2,187.2
2015-08-15 11:39:00,UMQ,9.51,76.38,-34.41,66.62,-193.1,65.6,183.5
2015-08-15 11:40:00,UMQ,9.53,76.38,-34.41,66.54,-214.5,56.9,189.8
2015-08-15 11:41:00,UMQ,9.55,76.38,-34.41,66.47,-221.3,69.6,190.8
2015-08-15 11:42:00,UMQ,9.56,76.38,-34.41,66.39,-221.8,74.0,181.1
2015-08-15 11:43:00,UMQ,9.58,76.38,-34.41,66.32,-230.5,70.5,175.2
2015-08-15 11:44:00,UMQ,9.59,76.38,-34.41,66.25,-234.5,66.8,169.3
2015-08-15 11:45:00,UMQ,9.61,76.38,-34.41,66.17,-238.7,73.4,161.6
2015-08-15 11:46:00,UMQ,9.62,76.38,-34.41,66.10,-238.4,80.8,150.0
2015-08-15 11:47:00,UMQ,9.64,76.38,-34.41,66.03,-234.3,103.7,136.9
2015-08-15 11:48:00,UMQ,9.65,76.38,-34.41,65.95,-233.0,122.6,126.2
2015-08-15 11:49:00,UMQ,9.67,76.38,-34.41,65.88,-231.6,136.1,119.1
2015-08-15 11:50:00,UMQ,9.69,76.38,-34.41,65.81,-230.4,137.9,110.6
2015-08-15 11:51:00,UMQ,9.70,76.38,-34.41,65.74,-226.1,136.4,100.8
2015-08-15 11:52:00,UMQ,9.72,76.38,-34.41,65.66,-221.9,137.2,93.2
2015-08-15 11:53:00,UMQ,9.73,76.38,-34.41,65.59,-220.6,144.3,90.0
2015-08-15 11:54:00,UMQ,9.75,76.38,-34.41,65.52,-217.4,148.0,87.8
2015-08-15 11:55:00,UMQ,9.76,76.38,-34.41,65.45,-210.6,153.4,82.9
2015-08-15 11:56:00,UMQ,9.78,76.38,-34.41,65.38,-206.5,155.5,77.5
2015-08-15 11:57:00,UMQ,9.79,76.38,-34.41,65.31,-200.5,158.7,71.3
2015-08-15 11:58:00,UMQ,9.81,76.38,-34.41,65.23,-198.1,158.5,65.8
2015-08-15 11:59:00,UMQ,9.82,76.38,-34.41,65.16,-193.9,161.3,64.3
2015-08-15 12:00:00,UMQ,9.84,76.38,-34.41,65.09,-190.0,168.2,60.4
2015-08-15 12:01:00,UMQ,9.86,76.38,-34.41,65.02,-186.5,169.7,56.3
2015-08-15 12:02:00,UMQ,9.87,76.38,-34.41,64.95,-179.9,163.4,53.0
2015-08-15 12:03:00,UMQ,9.89,76.38,-34.41,64.88,-171.3,165.6,45.3
2015-08-15 12:04:00,UMQ,9.90,76.38,-34.41,64.81,-165.7,162.4,37.1
2015-08-15 12:05:00,UMQ,9.92,76.38,-34.41,64.74,-155.6,159.9,31.6
2015-08-15 12:06:00,UMQ,9.93,76.38,-34.41,64.67,-151.9,153.3,24.6
2015-08-15 12:07:00,UMQ,9.95,76.38,-34.41,64.60,-141.9,156.5,15.6
2015-08-15 12:08:00,UMQ,9.96,76.38,-34.41,64.53,-134.1,174.7,8.7
2015-08-15 12:09:00,UMQ,9.98,76.38,-34.41,64.46,-115.4,180.9,-2.9
2015-08-15 12:10:00,UMQ,9.99,76.38,-34.41,64.40,-118.2,146.1,6.1
2015-08-15 12:11:00,UMQ,10.01,76.38,-34.41,64.33,-115.3,135.6,19.1
2015-08-15 12:12:00,UMQ,10.02,76.38,-34.41,64.26,-104.7,138.0,10.7
2015-08-15 12:13:00,UMQ,10.04,76.38,-34.41,64.19,-93.5,141.7,-2.4
2015-08-15 12:14:00,UMQ,10.05,76.38,-34.41,64.12,-84.3,146.1,-16.0
2015-08-15 12:15:00,UMQ,10.07,76.38,-34.41,64.05,-82.3,151.1,-26.2
2015-08-15 12:16:00,UMQ,10.08,76.38,-34.41,63.99,-84.5,150.4,-25.7
2015-08-15 12:17:00,UMQ,10.10,76.38,-34.41,63.92,-84.6,157.0,-24.5
2015-08-15 12:18:00,UMQ,10.11,76.38,-34.41,63.85,-79.1,168.5,-30.7
2015-08-15 12:19:00,UMQ,10.13,76.38,-34.41,63.79,-75.6,175.0,-40.5
2015-08-15 12:20:00,UMQ,10.14,76.38,-34.41,63.72,-70.6,168.8,-56.5
2015-08-15 12:21:00,UMQ,10.16,76.38,-34.41,63.65,-62.2,172.4,-74.9
2015-08-15 12:22:00,UMQ,10.17,76.38,-34.41,63.59,-49.5,173.9,-96.4
2015-08-15 12:23:00,UMQ,10.19,76.38,-34.41,63.52,-43.6,170.5,-113.1
2015-08-15 12:24:00,UMQ,10.20,76.38,-34.41,63.45,-35.8,165.7,-123.4
2015-08-15 12:25:00,UMQ,10.22,76.38,-34.41,63.39,-31.2,168.1,-131.8
2015-08-15 12:26:00,UMQ,10.23,76.38,-34.41,63.32,-28.3,189.4,-131.5
2015-08-15 12:27:00,UMQ,10.25,76.38,-34.41,63.26,-32.4,202.0,-117.7
2015-08-15 12:28:00,UMQ,10.27,76.38,-34.41,63.19,-29.0,209.5,-86.4
2015-08-15 12:29:00,UMQ,10.28,76.38,-34.41,63.13,-30.5,183.3,-45.6
2015-08-15 12:30:00,UMQ,10.30,76.38,-34.41,63.06,-34.0,145.0,-6.8
2015-08-15 12:31:00,UMQ,10.31,76.38,-34.41,63.00,-23.6,127.4,14.1
2015-08-15 12:32:00,UMQ,10.32,76.38,-34.41,62.94,-19.6,135.8,31.1
2015-08-15 12:33:00,UMQ,10.34,76.38,-34.41,62.87,-11.7,128.0,57.6
2015-08-15 12:34:00,UMQ,10.35,76.38,-34.41,62.81,-29.9,120.9,97.2
2015-08-15 12:35:00,UMQ,10.37,76.38,-34.41,62.75,-44.7,119.6,128.5
2015-08-15 12:36:00,UMQ,10.38,76.38,-34.41,62.68,-61.0,111.8,147.0
2015-08-15 12:37:00,UMQ,10.40,76.38,-34.41,62.62,-71.6,101.0,154.7
2015-08-15 12:38:00,UMQ,10.41,76.38,-34.41,62.56,-95.5,104.7,164.6
2015-08-15 12:39:00,UMQ,10.43,76.38,-34.41,62.50,-102.2,97.8,170.1
2015-08-15 12:40:00,UMQ,10.44,76.38,-34.41,62.43,-111.5,85.0,167.7
2015-08-15 12:41:00,UMQ,10.46,76.38,-34.41,62.37,-128.6,84.5,173.3
2015-08-15 12:42:00,UMQ,10.47,76.38,-34.41,62.31,-142.6,79.6,174.6
2015-08-15 12:43:00,UMQ,10.49,76.38,-34.41,62.25,-142.5,72.2,174.0
2015-08-15 12:44:00,UMQ,10.50,76.38,-34.41,62.19,-142.6,62.0,157.4
2015-08-15 12:45:00,UMQ,10.52,76.38,-34.41,62.13,-155.9,58.7,142.5
2015-08-15 12:46:00,UMQ,10.53,76.38,-34.41,62.07,-166.0,67.6,132.2
2015-08-15 12:47:00,UMQ,10.55,76.38,-34.41,62.01,-170.5,75.2,116.9
2015-08-15 12:48:00,UMQ,10.56,76.38,-34.41,61.95,-166.8,83.3,97.8
2015-08-15 12:49:00,UMQ,10.58,76.38,-34.41,61.89,-159.3,96.2,79.2
2015-08-15 12:50:00,UMQ,10.59,76.38,-34.41,61.83,-144.7,99.3,60.7
2015-08-15 12:51:00,UMQ,10.61,76.38,-34.41,61.77,-135.7,100.3,41.2
2015-08-15 12:52:00,UMQ,10.62,76.38,-34.41,61.71,-122.3,100.6,14.4
2015-08-15 12:53:00,UMQ,10.64,76.38,-34.41,61.65,-107.2,93.7,-13.5
2015-08-15 12:54:00,UMQ,10.65,76.38,-34.41,61.59,-97.2,89.8,-31.3
2015-08-15 12:55:00,UMQ,10.66,76.38,-34.41,61.54,-100.4,100.8,-42.2
2015-08-15 12:56:00,UMQ,10.68,76.38,-34.41,61.48,-103.1,107.6,-65.0
2015-08-15 12:57:00,UMQ,10.69,76.38,-34.41,61.42,-97.7,112.8,-101.2
2015-08-15 12:58:00,UMQ,10.71,76.38,-34.41,61.36,-86.4,116.7,-134.6
2015-08-15 12:59:00,UMQ,10.72,76.38,-34.41,61.31,-74.0,124.4,-161.7
2015-08-15 13:00:00,UMQ,10.74,76.38,-34.41,61.25,-59.2,135.6,-180.9
